User: anonymous   Login
Location: Mercogliano
(40.9167°N, 14.7333°E)
Time: 13:22:30
(UTC+00:00)
Language:

Cosmos 1844 - Orbit

View from above orbital plane
View from above orbital plane
View from above satellite
View from above satellite

Ground track
Ground track

The orbit data is extracted from the following two-line orbital elements,

1 17973U 87041A   20330.92535533 -.00000208 +00000-0 -83623-4 0  9998
2 17973 070.8967 142.7226 0029704 034.2771 326.0260 14.14116147730746
Epoch (UTC): 25 November 2020 22:12:30
Eccentricity: 0.0029704
inclination: 70.8967°
perigee height: 824 km
apogee height: 867 km
right ascension of ascending node: 142.7226°
argument of perigee: 34.2771°
revolutions per day: 14.14116147
mean anomaly at epoch: 326.0260°
orbit number at epoch: 73074

The dashed part of the orbit path shows where the satellite is in the earth's shadow,  

DLR